Total_Precipitation_Accumulation
2.90 3.03 3.41 2.77 2.29 2.06 1.95 2.03 2.22 2.08 2.05 2.08 2.19 2.23 2.17 2.17 2.25 2.47 2.57 2.55 2.66 2.96 3.28 3.59 3.73 3.83 4.15 4.25 3.88 3.55 3.52 3.73 3.83 3.70 3.55 3.31 3.12 3.20 3.33 3.42 3.23 2.32 2.35
2.38 2.63 2.95 2.45 2.02 1.84 1.83 2.02 2.11 2.06 2.02 2.07 2.10 2.12 2.15 2.18 2.23 2.40 2.49 2.66 2.89 3.15 3.27 3.46 3.52 3.50 3.65 3.66 3.45 3.18 3.19 3.61 4.05 3.94 3.68 3.28 3.27 3.32 3.43 3.39 3.25 2.45 2.39
1.73 2.07 2.23 2.16 1.87 1.75 1.75 1.90 1.86 1.81 1.89 2.07 2.16 2.23 2.30 2.38 2.38 2.40 2.55 2.71 2.97 3.20 3.31 3.32 3.31 3.32 3.28 3.24 3.21 3.03 3.27 3.72 4.06 4.22 4.20 3.04 2.89 3.41 3.56 3.39 2.91 2.46 2.34
1.27 1.55 1.68 1.84 1.75 1.64 1.51 1.62 1.69 1.64 1.70 1.91 2.23 2.44 2.50 2.64 2.62 2.65 2.84 2.95 3.06 3.05 3.16 3.20 3.17 3.06 3.06 3.02 2.93 3.04 3.24 3.70 4.16 4.58 4.01 2.78 2.36 3.00 3.42 3.15 2.78 2.60 2.45
1.16 1.28 1.54 1.54 1.46 1.52 1.48 1.56 1.66 1.73 1.76 1.79 2.08 2.39 2.63 2.85 2.90 2.98 3.11 3.22 3.23 3.05 2.93 3.00 3.01 2.77 2.80 2.85 2.92 3.14 3.30 3.91 4.59 4.42 3.32 2.96 2.79 2.97 3.09 3.15 3.08 3.01 2.76
1.01 1.07 1.24 1.47 1.48 1.51 1.50 1.53 1.54 1.69 1.83 1.93 2.18 2.48 2.70 2.93 3.11 3.28 3.26 3.33 3.29 3.06 2.96 2.92 2.86 2.71 2.76 2.85 3.05 3.17 3.34 3.99 4.20 3.22 2.83 2.76 2.68 2.94 2.95 3.20 3.24 3.19 3.06
0.86 1.01 1.18 1.41 1.49 1.52 1.47 1.51 1.58 1.69 1.91 2.09 2.16 2.30 2.45 2.66 3.01 3.16 3.12 3.14 3.01 2.87 2.79 2.80 2.82 2.71 2.67 2.79 3.12 3.15 3.38 3.78 3.25 2.63 2.72 2.80 2.49 2.53 2.81 3.25 3.36 3.25 2.95
0.87 0.86 1.09 1.34 1.48 1.51 1.47 1.58 1.70 1.90 2.09 2.22 2.15 2.16 2.27 2.51 2.78 2.82 2.77 2.76 2.70 2.74 2.74 2.78 2.79 2.64 2.52 2.79 2.98 3.02 3.27 3.23 2.53 2.29 2.31 2.30 2.22 2.35 2.78 3.16 3.28 3.23 2.94
1.11 1.02 1.09 1.18 1.24 1.37 1.50 1.64 1.90 2.13 2.25 2.25 2.12 2.11 2.31 2.45 2.51 2.46 2.51 2.53 2.58 2.61 2.66 2.67 2.60 2.50 2.48 2.68 2.74 2.79 3.07 3.20 2.55 2.34 2.03 2.17 2.44 2.62 3.01 3.19 3.20 3.25 3.14
1.44 1.36 1.25 1.27 1.28 1.24 1.46 1.82 2.05 2.22 2.34 2.32 2.26 2.35 2.52 2.61 2.53 2.58 2.53 2.61 2.66 2.75 2.81 2.90 2.84 2.68 2.62 2.62 2.52 2.70 3.07 2.89 2.37 2.20 2.12 2.05 2.48 2.76 3.06 3.22 3.24 3.18 3.14
1.99 1.72 1.55 1.38 1.41 1.52 1.58 1.79 2.22 2.46 2.49 2.47 2.69 2.91 3.03 2.95 2.73 2.89 2.71 3.02 3.09 3.14 3.20 3.33 3.24 2.96 2.82 2.73 2.82 3.14 2.94 2.49 2.47 2.43 2.26 2.23 2.48 2.82 3.23 3.32 3.29 3.26 3.12
2.26 1.85 1.69 1.50 1.46 1.56 1.73 2.20 2.56 2.40 2.53 2.78 3.07 3.23 3.46 3.39 3.31 2.86 3.14 3.54 3.82 4.11 4.14 4.14 4.00 3.58 3.02 2.77 3.37 3.77 2.71 2.38 2.45 2.46 2.39 2.42 2.71 3.05 3.30 3.20 3.10 3.11 3.04
2.06 1.89 1.84 1.86 1.93 1.85 2.01 2.33 2.63 2.62 2.80 2.94 3.01 3.20 3.42 3.15 3.07 3.19 3.54 3.87 4.15 4.38 4.34 4.48 4.58 3.97 3.49 3.31 3.51 3.49 2.74 2.53 2.48 2.40 2.62 2.75 2.87 3.13 3.50 3.39 3.27 3.23 3.14
2.55 2.32 2.19 2.26 2.30 2.32 2.29 2.46 2.60 2.58 2.73 2.90 3.03 3.02 3.15 3.32 3.40 3.55 3.95 3.95 4.12 4.27 4.65 4.42 4.72 4.42 3.97 3.62 3.52 3.32 2.85 2.71 2.71 2.84 3.23 3.03 2.87 3.26 3.72 3.71 3.58 3.37 3.18
3.16 3.15 2.91 2.63 2.51 2.60 2.81 2.81 2.63 2.76 2.90 3.00 3.20 3.18 3.13 3.45 3.65 3.76 3.89 4.11 3.82 3.87 4.34 4.55 4.38 4.57 4.60 4.27 3.94 3.54 3.31 3.05 2.96 3.05 3.26 3.29 3.18 3.31 3.66 3.86 3.73 3.64 3.39
3.33 3.45 3.24 3.11 2.97 3.03 3.31 3.43 3.30 3.14 3.40 3.37 3.30 3.23 3.31 3.55 3.96 4.17 4.10 4.19 3.94 3.73 3.96 4.22 4.26 4.94 4.82 4.69 4.22 3.85 3.68 3.50 3.24 3.17 3.28 3.58 3.44 3.20 3.34 3.80 3.96 3.93 3.76
3.61 3.52 3.46 3.44 3.42 3.61 3.74 3.70 3.48 3.40 3.28 3.37 3.46 3.49 3.50 3.47 3.92 4.18 4.36 4.33 4.06 3.81 4.05 4.23 4.45 4.73 4.50 4.40 4.21 4.02 3.85 3.71 3.43 3.30 3.59 3.84 3.59 3.43 3.35 3.55 3.94 4.14 4.21
3.89 3.87 3.87 3.70 3.86 4.08 4.19 4.07 3.90 3.73 3.54 3.36 3.30 3.49 3.56 3.65 3.92 4.17 4.10 4.01 4.11 4.05 4.33 4.57 4.68 4.75 4.65 4.48 4.26 3.92 3.76 3.82 3.39 3.24 3.28 3.37 3.47 3.22 3.43 3.75 4.02 4.11 4.37
4.36 4.51 4.55 4.49 4.42 4.47 4.51 4.40 4.43 4.40 4.16 3.81 3.67 3.71 3.79 3.72 3.73 3.97 3.95 4.08 4.17 4.19 4.30 3.93 4.52 4.57 4.66 4.49 3.89 3.73 3.45 3.45 3.34 2.99 2.97 2.82 2.99 3.12 3.18 3.32 3.66 3.76 4.33
4.59 5.11 5.14 5.02 5.06 5.17 5.17 4.87 4.87 4.66 4.38 4.22 4.17 4.32 4.09 3.89 3.70 3.93 3.93 4.08 4.11 4.22 4.30 4.28 4.57 4.51 4.36 4.31 3.49 3.35 3.25 2.99 2.92 2.90 2.70 2.68 2.80 2.70 2.89 3.21 3.51 3.23 3.74
4.86 5.36 5.63 5.73 5.69 5.48 5.21 4.85 4.65 4.66 4.65 4.38 4.16 4.01 3.89 3.76 3.81 4.18 4.05 4.44 4.32 4.09 4.06 4.16 4.43 4.35 4.07 4.14 4.12 3.59 2.99 2.67 2.69 2.60 2.69 2.80 2.63 2.70 3.05 3.48 3.61 3.39 3.11
4.45 4.91 5.12 4.94 4.97 4.85 4.65 4.59 4.58 4.85 4.57 4.28 4.11 3.98 3.66 3.63 3.72 3.73 4.14 4.12 4.15 4.26 4.16 4.12 4.33 4.17 3.77 3.98 4.27 4.22 3.48 3.26 2.76 2.23 2.49 2.68 2.77 3.04 3.14 3.18 3.55 3.70 3.38
3.40 3.69 3.90 4.12 4.16 4.11 4.13 4.10 4.20 4.46 4.31 4.17 4.04 3.94 3.54 3.36 3.34 3.50 3.67 3.87 4.21 4.06 4.09 4.18 4.11 4.05 3.80 3.77 3.98 4.33 3.87 3.42 2.90 2.36 2.21 2.47 2.86 3.16 3.13 3.16 3.26 3.45 3.51
3.05 3.25 3.35 3.46 3.64 3.72 3.84 3.77 3.64 3.55 3.56 3.58 3.66 3.61 3.59 3.42 3.31 3.32 3.44 3.63 3.81 3.61 3.68 3.38 3.51 3.82 3.99 3.71 3.82 3.76 3.67 3.60 3.49 2.94 2.49 2.43 2.72 2.92 3.10 3.07 3.19 3.36 3.57
2.47 2.70 2.85 3.01 3.18 3.44 3.59 3.54 3.51 3.30 3.29 3.37 3.44 3.48 3.47 3.39 3.29 3.22 3.24 3.31 3.34 3.21 3.28 3.21 3.45 3.45 3.47 3.47 3.58 3.66 3.76 3.75 3.56 3.38 2.99 2.88 2.78 2.52 2.60 2.82 3.04 3.20 3.39
2.22 2.40 2.53 2.68 2.81 3.04 3.22 3.33 3.40 3.35 3.25 3.21 3.22 3.24 3.22 3.22 3.11 3.02 2.95 2.98 3.00 3.00 3.05 3.11 3.26 3.17 3.21 3.37 3.44 3.48 3.67 3.69 3.76 3.76 3.22 3.00 2.78 2.29 2.26 2.26 2.50 2.81 3.21